カタログに戻る

ARIANE 5 DEB

SYLDA

運用中GTO
NORAD 26109·DEBRIS·🇫🇷 France

打ち上げ Mar 21, 2000 から Guiana Space Centre

Loading…

TLE

経年Source: Space-Track

元期: Sep 14, 2026, 05:22 UTC

1 26109U 00016C   26257.22406755  .00000012  00000-0  17510-2 0  9997
2 26109   6.5611 240.9184 7151579 273.4064  14.4772  2.28383679219788

AllMySatでARIANE 5 DEBをリアルタイム追跡

Download on the App Store